Weather History for Glasgow, MT

Change the Weather History Date:

Saturday, January 26, 2013

  Actual Average Record
Temperature  
Mean Temperature 28 °F 15 °F  
Max Temperature 38 °F 24 °F 48 °F (1942)
Min Temperature 17 °F 5 °F -50 °F (1950)
Degree Days  
Heating Degree Days 37 50  
Month to date heating degree days 1263 1340  
Since 1 July heating degree days 4793 4842  
Cooling Degree Days 0 0  
Month to date cooling degree days 0 0  
Year to date cooling degree days 0 0  
Moisture  
Dew Point 21 °F    
Average Humidity 81    
Maximum Humidity 92    
Minimum Humidity 69    
Precipitation  
Precipitation T in 0.01 in 0.70 in (1951)
Month to date precipitation 0.46 0.33  
Year to date precipitation 0.46 0.33  
Snow  
Snow 0.00 in 0.20 in 7.40 in (1951)
Month to date snowfall 10.8 7.0  
Since 1 July snowfall 33.4 21.6  
Snow Depth 1.00 in    
Sea Level Pressure  
Sea Level Pressure 29.88 in    
Wind  
Wind Speed 6 mph (ENE)    
Max Wind Speed 21 mph    
Max Gust Speed 24 mph    
Visibility 10 miles    
Events      
T = Trace of Precipitation, MM = Missing Value Source: NWS Daily Summary

Daily Weather History Graph

Daily Weather History Graph

Search for Another Location

Airport:

Trip Planner

Search our weather history database for the weather conditions in past years. The results will help you decide how hot, cold, wet, or windy it might be!

Date:

Astronomy

Jan. 26, 2013 Rise Set
Actual Time 7:41 AM MST 4:57 PM MST
Civil Twilight 7:07 AM MST 5:31 PM MST
Nautical Twilight 6:29 AM MST 6:08 PM MST
Astronomical Twilight 5:53 AM MST 6:45 PM MST
Moon 4:58 PM MST (1/26) 6:58 AM MST (1/26)
Length of Visible Light 10h 23m
Length of Day
9h 15m
Full, 100% of the Moon is Illuminated
Jan 26
Full
Jan 26
Full
Feb 3
Last Quarter
Feb 10
New
Feb 17
First Quarter

Hourly Weather History & Observations

Time (MST) Temp. Windchill Dew Point Humidity Pressure Visibility Wind Dir Wind Speed Gust Speed Precip Events Conditions
12:53 AM 17.1 °F - 14.0 °F 88% 29.96 in 10.0 mi Calm Calm - N/A   Clear
1:53 AM 17.1 °F 11.7 °F 14.0 °F 88% 29.96 in 8.0 mi SW 3.5 mph - N/A   Clear
2:53 AM 19.0 °F - 15.1 °F 85% 29.94 in 10.0 mi Calm Calm - N/A   Clear
3:53 AM 19.9 °F - 16.0 °F 85% 29.93 in 10.0 mi Calm Calm - N/A   Mostly Cloudy
4:53 AM 18.0 °F 11.1 °F 15.1 °F 88% 29.94 in 9.0 mi NNW 4.6 mph - N/A   Partly Cloudy
5:53 AM 19.0 °F - 15.1 °F 85% 29.94 in 8.0 mi Calm Calm - N/A   Overcast
6:53 AM 19.9 °F 14.9 °F 16.0 °F 85% 29.95 in 10.0 mi NW 3.5 mph - N/A   Mostly Cloudy
7:53 AM 19.0 °F 13.9 °F 15.1 °F 85% 29.96 in 6.0 mi WNW 3.5 mph - N/A   Mostly Cloudy
8:53 AM 21.9 °F 14.5 °F 17.1 °F 82% 29.95 in 8.0 mi NNW 5.8 mph - N/A   Overcast
9:53 AM 26.1 °F - 19.0 °F 75% 29.95 in 10.0 mi Calm Calm - N/A   Clear
10:53 AM 30.0 °F 26.5 °F 21.0 °F 69% 29.94 in 10.0 mi West 3.5 mph - N/A   Overcast
11:53 AM 30.0 °F 26.5 °F 21.9 °F 72% 29.92 in 10.0 mi South 3.5 mph - N/A   Mostly Cloudy
12:53 PM 33.1 °F 27.7 °F 25.0 °F 72% 29.88 in 10.0 mi ESE 5.8 mph - N/A   Scattered Clouds
1:53 PM 35.1 °F 32.2 °F 26.1 °F 70% 29.87 in 10.0 mi East 3.5 mph - N/A   Clear
2:53 PM 36.0 °F 31.1 °F 28.0 °F 73% 29.85 in 10.0 mi East 5.8 mph - N/A   Clear
3:53 PM 36.0 °F 32.1 °F 28.0 °F 73% 29.84 in 10.0 mi ENE 4.6 mph - N/A   Clear
4:53 PM 32.0 °F 23.6 °F 27.0 °F 82% 29.85 in 10.0 mi ENE 10.4 mph - N/A   Clear
5:53 PM 30.0 °F 21.1 °F 26.1 °F 85% 29.85 in 10.0 mi East 10.4 mph - N/A   Clear
6:53 PM 27.0 °F 15.2 °F 25.0 °F 92% 29.84 in 10.0 mi ESE 15.0 mph - N/A   Clear
7:53 PM 25.0 °F 12.2 °F 23.0 °F 92% 29.82 in 10.0 mi East 16.1 mph - N/A   Clear
8:53 PM 25.0 °F 11.3 °F 21.9 °F 88% 29.79 in 10.0 mi East 18.4 mph - N/A   Partly Cloudy
9:53 PM 23.0 °F 9.2 °F 19.9 °F 88% 29.79 in 9.0 mi East 17.3 mph - N/A   Scattered Clouds
10:43 PM 26.6 °F 20.0 °F 23.0 °F 86% 29.73 in 10.0 mi East 5.8 mph 21.9 mph N/A   Overcast
10:53 PM 27.0 °F 18.7 °F 23.0 °F 85% 29.82 in 10.0 mi NNE 8.1 mph - 0.00 in   Overcast
11:53 PM 26.1 °F - 24.1 °F 92% 29.80 in 10.0 mi Calm Calm - 0.00 in   Overcast